SCP
0 0 0 0 -0 -0 -0 -0 -0 -0 -0 -0 -0 -0 -0 -0 -0 -0 -0 0 0 0 0 0 0 0 0 0 0 0 0 0 0 0 0 0 0 0 0 0 0 0 0 0 0 0 0 0 0
0 0 0 0 -0 -0 -0 -0 -0 -0 -0 -0 -0 -0 -0 -0 -0 -0 0 0 0 0 0 0 0 0 0 0 0 0 0 0 0 0 0 0 0 0 0 0 0 0 0 0 0 0 0 0 0
0 0 0 -0 -0 -0 -0 -0 -0 -0 -0 -0 -0 -0 -0 -0 -0 -0 0 0 0 0 0 0 0 0 0 0 0 0 0 0 0 0 0 0 0 0 0 0 0 0 0 0 0 0 0 0 0
0 0 -0 -0 -0 -0 -0 -0 -0 -0 -0 -0 -0 -0 -0 -0 -0 -0 0 0 0 0 0 0 0 0 0 0 0 0 0 0 0 0 0 0 0 0 0 0 0 0 0 0 0 0 0 0 0
0 -0 -0 0 0 -0 -0 -0 -0 -0 -0 -0 -0 -0 -0 -0 -0 0 0 0 0 0 0 0 0 0 0 0 0 0 0 0 0 0 0 0 0 0 0 0 0 0 0 0 0 0 0 0 0
0 -0 0 0 0 0 -0 -0 -0 -0 -0 -0 -0 -0 -0 -0 -0 0 0 0 0 0 0 0 0 0 0 0 0 0 0 0 0 0 0 0 0 0 0 0 0 0 0 0 0 0 0 0 0
0 -0 0 0 0 0 0 -0 -0 -0 -0 -0 -0 -0 0 0 0 0 0 0 0 0 0 0 0 0 0 0 0 0 0 0 0 0 0 0 0 0 0 0 0 0 0 0 0 0 0 0 0
0 0 0 0 0 0 0 -0 -0 -0 -0 -0 -0 0 0 0 0 0 -0 -0 -0 0 0 0 0 0 0 0 0 0 0 0 0 0 0 0 0 0 0 0 0 0 0 0 0 0 0 0 0
0 0 0 0 0 0 0 0 -0 -0 -0 -0 0 0 0 0 0 0 0 -0 -0 -0 0 0 0 0 0 0 1 1 1 1 1 1 1 1 0 0 0 0 1 0 0 0 0 0 0 0 0
0 0 0 0 0 0 0 0 -0 -0 -0 0 0 0 0 0 0 0 0 0 -0 -0 -0 -0 0 0 0 0 1 1 1 1 1 1 1 1 1 0 1 1 1 1 0 0 0 0 0 0 0
0 0 0 0 0 0 0 0 0 0 0 0 0 0 1 1 1 0 0 0 0 0 -0 -0 0 0 0 0 1 1 1 1 1 1 1 1 1 1 1 1 1 1 1 1 1 1 1 0 0
0 0 0 0 0 0 0 0 0 0 0 0 0 1 1 1 1 1 0 0 0 0 0 0 0 0 0 0 1 1 1 1 1 1 1 1 1 1 1 1 1 1 1 1 1 1 1 1 1
0 0 0 0 0 0 0 0 0 0 0 0 1 1 1 1 1 1 1 1 0 0 0 0 0 0 0 0 1 1 1 1 1 1 1 1 2 2 2 2 2 1 1 1 1 1 1 1 1
0 0 0 0 0 0 0 0 0 0 0 1 1 1 1 2 1 1 1 1 1 0 0 1 1 1 1 1 1 1 1 1 1 1 1 1 1 2 2 2 1 1 1 1 1 1 1 1 1
0 0 0 0 0 0 0 0 0 0 0 1 1 2 2 2 2 2 1 1 1 1 1 1 1 1 1 1 1 1 1 1 1 1 1 1 1 1 1 1 1 1 1 1 1 1 1 1 1
0 0 0 0 0 0 0 0 0 0 0 1 2 2 3 3 2 2 1 1 1 1 1 1 1 1 1 1 1 1 1 1 1 1 1 1 1 1 1 1 1 1 1 1 1 1 2 2 2
0 0 0 0 0 0 0 0 0 0 1 1 2 2 3 3 2 2 1 1 1 1 1 1 1 2 1 1 1 1 1 1 1 1 1 1 1 1 1 1 1 1 1 1 1 1 2 2 2
0 0 0 0 0 0 0 0 0 1 1 1 2 2 2 3 2 2 2 1 1 1 1 1 2 2 1 1 1 1 1 1 1 1 1 1 0 0 0 1 1 1 1 1 1 1 1 1 1
0 0 0 0 0 0 0 0 1 1 1 1 2 2 2 2 2 2 2 2 1 1 2 2 2 1 1 1 1 0 0 0 0 0 0 0 0 0 0 0 0 0 0 0 1 1 1 1 1
0 0 0 0 0 0 0 0 0 1 1 1 1 1 2 2 2 2 2 2 1 1 2 1 1 1 0 0 0 0 0 0 0 0 0 0 0 0 0 0 0 0 0 0 0 0 0 0 0
0 0 0 0 0 0 0 0 0 0 0 1 1 1 1 2 2 2 2 1 1 1 1 1 1 1 0 0 0 0 0 0 0 0 0 0 0 0 0 0 0 0 0 0 0 0 0 0 0
0 0 0 0 0 0 0 0 0 0 0 0 1 1 1 2 2 2 1 1 1 1 1 1 1 1 1 1 0 0 0 -0 0 0 0 0 0 0 0 0 0 0 0 0 0 0 0 0 1
0 0 0 0 0 0 0 0 0 0 0 0 1 1 1 2 2 2 1 1 1 1 1 1 1 1 1 1 1 1 0 0 0 0 0 0 0 0 0 0 0 0 0 0 0 0 0 0 1
0 0 0 0 0 0 0 0 0 0 0 0 0 1 1 1 1 1 1 1 1 1 1 1 1 1 1 1 1 1 1 0 0 0 0 0 0 0 0 0 0 0 0 0 0 0 0 0 1
0 0 0 0 0 0 0 0 0 0 0 0 0 1 1 1 1 1 1 1 1 1 1 1 1 1 1 1 1 1 1 1 1 0 0 0 0 0 0 0 0 0 0 0 0 0 0 0 0
0 0 0 0 0 0 0 0 0 0 0 0 0 0 1 1 0 0 0 0 0 1 1 1 1 2 2 2 2 2 2 1 1 1 0 0 0 0 0 0 0 0 0 0 0 0 0 0 0
0 0 0 0 0 0 0 0 0 0 0 0 0 0 0 0 0 0 0 0 0 0 0 1 1 2 2 2 3 3 2 2 1 1 1 0 0 0 0 0 0 0 0 0 0 0 0 0 0
0 0 0 0 0 0 0 0 0 0 0 0 0 0 0 0 0 0 0 0 0 0 0 0 1 1 1 2 2 2 3 3 2 2 1 1 0 0 0 0 0 0 0 0 0 0 0 0 0
0 0 0 0 0 0 0 0 0 0 0 0 0 0 0 0 0 0 0 0 0 0 0 0 0 0 0 1 1 1 2 2 2 2 2 1 1 1 0 0 0 0 0 0 0 0 0 0 0
0 0 0 0 0 0 0 0 0 0 0 0 0 0 0 0 0 0 0 0 0 0 0 0 0 0 0 0 0 0 1 1 2 2 2 1 1 1 0 0 0 0 0 0 0 0 0 0 0
Wind_Speed
10 8 6 5 8 4 7 6 4 5 6 6 4 2 3 5 6 7 7 14 16 17 18 18 15 14 13 12 12 13 14 14 14 13 12 11 11 11 10 10 9 9 8 8 8 8 7 7 7
5 5 6 7 7 5 7 4 4 7 6 4 4 2 3 7 7 7 9 13 16 17 17 16 16 14 13 13 12 13 13 12 12 12 11 10 10 9 9 9 8 8 7 7 7 7 7 7 7
5 7 7 6 2 4 7 5 5 4 3 2 4 4 5 7 6 6 10 16 16 16 15 16 17 15 14 13 12 12 12 12 11 11 10 10 9 8 8 7 7 7 6 6 6 6 6 6 6
5 6 7 7 2 5 3 4 3 2 3 4 3 7 7 7 4 8 15 16 16 15 15 18 17 15 14 13 12 12 11 11 11 10 10 9 9 8 8 8 8 7 7 6 6 5 5 5 5
7 7 8 4 3 3 1 1 1 1 4 5 3 7 9 6 7 13 15 15 15 15 14 18 16 16 15 13 13 12 11 11 11 10 10 10 10 9 9 8 8 7 7 6 6 6 5 5 6
7 7 7 2 4 2 2 3 3 0 3 4 4 8 9 7 8 13 14 13 14 14 14 17 16 15 15 14 14 13 12 12 11 11 11 10 10 9 9 9 9 9 8 8 7 7 7 7 7
7 7 4 2 2 4 2 1 2 2 2 4 3 7 10 10 9 11 12 11 12 12 13 14 16 15 14 13 13 13 13 13 12 12 11 11 10 10 10 10 10 10 10 10 9 9 9 9 8
6 7 6 4 3 4 3 2 1 5 4 5 2 4 9 13 11 11 11 10 9 10 11 12 13 13 13 14 14 13 13 13 13 12 12 12 12 12 12 12 13 12 11 11 11 11 11 11 11
7 8 6 3 2 3 3 0 2 1 2 4 4 7 11 18 14 12 11 9 9 10 9 11 12 11 11 11 14 14 14 14 13 13 14 12 12 13 12 14 10 12 13 13 13 13 13 12 13
6 9 2 3 3 5 5 4 2 4 5 6 8 10 15 17 15 14 13 12 12 12 11 9 9 10 11 9 9 10 11 12 12 11 12 11 10 8 9 4 8 12 14 14 15 14 13 13 11
6 7 5 3 5 8 6 3 3 6 4 2 7 14 16 17 16 14 12 11 11 11 10 10 9 9 9 7 7 6 7 7 9 11 10 9 8 7 8 6 8 11 13 12 11 12 11 11 8
6 7 7 7 7 8 8 7 6 7 1 5 3 15 18 18 16 14 12 10 10 9 10 9 9 8 8 7 6 6 6 6 6 8 10 8 6 7 7 6 8 7 6 7 8 7 9 10 10
8 7 7 7 9 10 10 11 9 7 1 3 8 15 16 16 15 13 10 9 8 9 9 9 8 8 7 6 6 6 7 7 8 7 8 9 7 7 7 7 7 9 8 8 8 9 9 10 10
6 9 11 10 8 7 9 11 10 7 2 6 11 14 15 15 15 13 11 10 9 8 8 8 9 9 8 7 7 6 7 6 8 6 8 8 7 8 8 8 8 9 8 8 7 10 9 9 9
8 10 10 6 4 4 8 13 13 5 3 7 10 12 14 13 13 12 11 9 9 9 8 9 9 9 9 9 8 6 6 7 6 6 7 8 8 8 8 8 9 9 9 9 9 11 9 9 9
8 10 11 5 1 0 8 15 4 2 7 9 10 12 13 12 12 10 9 8 7 8 8 8 7 7 7 7 6 6 6 6 5 5 6 8 8 8 7 7 8 8 7 7 8 9 9 9 9
10 10 8 4 1 3 6 10 3 3 8 9 10 12 12 12 11 9 8 8 7 7 7 7 7 6 6 6 5 5 5 5 5 4 4 5 6 6 5 5 5 7 7 7 8 7 7 9 10
4 6 5 5 3 6 5 4 1 3 6 8 10 11 11 12 10 9 7 7 6 5 5 5 5 5 4 4 3 3 4 4 3 3 2 3 3 4 6 6 6 8 8 8 7 9 9 9 9
3 5 6 2 4 6 4 3 1 4 7 8 10 11 11 10 9 8 8 8 7 6 5 5 3 4 3 2 2 2 2 2 2 2 1 2 3 4 5 7 6 7 8 9 11 11 12 11 9
3 5 5 3 1 7 7 6 3 5 7 9 11 11 11 10 9 9 8 8 7 6 5 5 5 4 4 2 2 2 3 3 3 2 2 2 3 4 5 6 8 8 8 10 11 11 11 11 10
5 7 7 8 6 8 9 11 8 7 8 9 10 10 10 10 10 10 9 8 7 6 5 4 3 4 5 4 4 3 4 5 5 5 4 3 3 5 6 7 9 9 9 9 10 11 13 12 12
8 4 6 8 11 11 8 12 10 8 10 11 11 10 9 8 8 8 7 7 6 5 4 4 5 6 6 6 6 6 6 7 6 5 4 3 4 5 6 8 8 9 9 9 10 10 10 11 11
7 4 6 9 11 11 8 10 8 2 8 10 9 7 5 5 4 3 2 2 2 3 4 5 6 7 7 7 6 7 7 6 5 4 4 5 5 5 6 7 8 9 9 9 10 10 11 10 11
2 6 8 9 9 6 2 8 4 7 10 10 8 5 2 1 3 5 6 6 6 7 7 7 7 8 7 8 7 7 7 7 7 6 6 6 5 4 5 7 8 9 9 9 10 10 12 11 11
6 9 8 7 5 1 3 6 6 13 14 13 13 14 13 14 13 13 14 13 12 12 11 9 8 7 6 6 6 6 6 7 7 7 6 6 6 5 5 7 8 9 9 10 11 11 11 11 11
9 9 9 8 8 8 4 3 11 14 15 16 17 17 18 18 16 16 15 14 14 15 14 13 11 9 7 5 4 5 5 6 5 6 6 6 6 6 6 8 9 10 11 11 10 11 11 10 11
7 6 7 10 11 10 6 2 12 13 15 15 16 17 17 16 16 15 15 14 14 15 15 15 14 12 11 9 6 5 5 6 6 6 7 7 5 6 7 8 10 10 10 11 11 10 11 11 11
5 6 6 8 8 10 7 7 1 9 10 12 13 14 15 14 15 15 15 15 15 14 14 14 14 13 13 13 11 8 7 6 7 8 8 8 8 7 8 9 10 10 10 10 11 11 10 10 10
4 4 6 7 7 10 14 5 8 8 8 9 11 12 13 14 14 13 12 13 14 14 14 14 14 13 13 13 13 12 10 9 8 8 9 9 9 9 9 9 10 10 10 10 10 11 11 10 9
3 4 5 7 9 9 13 2 9 9 8 8 10 12 12 13 13 13 12 12 12 13 13 13 13 13 13 13 13 12 12 11 10 10 10 11 11 11 11 10 10 10 9 9 9 10 9 8 8
Wind_Direction
176 185 217 233 238 194 87 85 66 53 59 49 48 46 14 20 358 52 104 142 142 144 143 153 159 156 150 147 141 137 139 141 141 140 139 141 142 142 142 140 137 137 138 138 138 136 134 134 135
183 194 226 240 252 106 104 96 73 53 68 78 83 84 71 65 47 89 133 144 148 145 146 154 154 157 152 150 148 145 144 145 145 144 144 146 148 149 152 152 152 152 151 152 152 149 146 146 148
207 226 260 256 270 85 98 96 68 88 87 38 65 52 48 57 78 110 133 148 151 142 145 142 155 158 155 154 154 153 152 151 151 152 152 154 157 161 166 167 169 172 172 174 174 169 163 161 162
222 224 239 254 112 79 57 57 52 139 105 60 73 90 79 50 66 116 137 152 147 144 151 143 160 160 160 161 162 162 162 162 163 164 165 167 171 178 183 185 188 192 194 197 200 197 190 187 186
241 255 248 220 108 97 96 31 252 243 52 65 66 94 92 75 92 126 146 152 150 153 151 146 162 163 165 167 170 171 172 174 177 180 183 185 188 194 200 201 205 210 213 217 223 226 223 219 218
248 253 260 221 112 119 157 169 191 140 69 95 97 107 98 113 126 138 147 157 154 154 154 143 161 167 170 173 176 179 181 185 188 192 196 200 203 209 217 223 225 227 230 232 235 239 243 243 242
280 281 274 265 148 141 97 159 238 197 136 97 105 109 121 131 130 143 147 159 157 160 158 152 166 171 175 180 184 187 189 193 197 202 206 210 215 220 227 231 234 236 238 240 240 243 248 250 249
286 275 234 193 175 119 103 168 5 313 60 98 141 119 137 140 142 145 147 157 163 167 168 161 179 173 180 182 190 198 201 203 206 211 216 219 223 226 229 234 228 235 241 245 247 250 253 253 248
267 256 223 136 87 84 50 316 108 313 146 138 90 66 108 136 144 149 150 158 170 179 186 182 183 180 193 195 179 195 205 210 213 214 218 225 234 231 217 227 222 231 242 247 249 252 255 256 245
256 255 203 40 354 344 343 327 288 218 206 164 124 109 127 145 154 163 165 168 175 182 189 191 198 187 203 208 189 203 211 206 216 226 217 220 234 251 257 213 217 241 249 253 250 251 254 251 250
261 281 341 327 338 329 309 279 234 246 224 186 166 151 154 158 164 170 168 171 169 175 185 191 202 201 211 207 217 216 222 220 222 233 237 243 254 250 250 248 221 226 235 244 239 235 244 250 255
270 279 295 304 324 313 300 285 250 239 345 52 134 158 162 166 168 172 169 166 158 170 179 192 195 204 219 231 226 231 235 230 229 228 235 242 249 258 262 262 270 266 252 250 258 257 257 263 270
254 279 290 285 286 286 280 268 270 261 45 108 139 158 166 167 167 170 166 164 166 175 182 188 193 202 211 227 249 248 248 249 239 234 237 239 250 263 271 276 277 279 280 270 262 270 273 270 266
300 294 280 274 275 259 259 258 250 254 138 145 155 163 167 165 165 164 173 179 182 188 191 193 201 202 208 217 230 247 257 251 265 258 256 259 262 268 273 273 274 272 272 275 273 268 267 266 265
285 279 265 235 246 250 254 246 240 257 190 174 167 164 161 164 166 173 180 188 189 195 204 206 209 210 212 227 238 245 250 254 259 266 269 269 266 268 269 270 268 268 269 268 264 265 260 255 253
251 252 248 196 291 252 252 257 218 229 212 193 174 166 164 168 175 180 186 199 200 205 211 218 224 218 218 234 255 269 273 276 276 281 283 286 285 278 275 270 271 279 278 271 268 265 267 261 255
222 239 252 233 78 317 263 278 27 268 218 195 182 173 166 170 179 181 189 196 204 209 217 222 230 234 234 242 250 260 272 282 285 292 299 305 302 306 294 286 289 287 279 275 274 276 273 272 268
225 253 246 263 8 317 294 299 310 239 216 196 188 181 177 177 173 169 174 175 179 185 195 206 208 214 225 228 237 262 273 277 278 287 304 311 317 328 318 299 303 299 290 286 286 288 277 273 272
302 271 269 293 359 309 315 317 171 194 201 195 196 191 188 178 158 159 161 155 153 156 163 175 180 161 189 196 245 255 270 284 283 283 318 304 324 331 312 307 310 293 289 292 290 286 280 270 267
268 272 266 244 337 303 300 288 213 205 212 207 201 197 195 184 171 169 169 164 162 157 158 168 176 170 196 182 237 274 300 285 301 283 247 277 312 316 305 310 298 295 293 283 279 277 277 276 266
293 297 308 310 306 261 272 266 223 204 211 216 219 216 212 203 191 179 178 173 170 172 179 183 185 191 210 211 228 223 236 249 239 244 240 258 296 301 305 298 296 299 291 288 288 285 277 274 270
299 340 308 300 293 292 290 289 272 228 225 226 223 221 224 213 204 180 178 183 190 195 204 208 217 222 221 224 241 262 280 291 302 292 292 288 278 295 298 295 293 287 283 280 276 274 273 271 269
331 343 294 293 292 285 269 273 290 271 270 262 243 233 242 221 204 176 194 241 271 283 275 257 244 240 233 234 239 251 266 284 290 285 270 279 284 283 293 300 299 293 288 290 288 283 275 268 266
303 262 251 252 262 260 21 301 316 30 359 346 3 12 343 345 52 32 8 353 340 326 308 290 270 257 246 238 242 248 269 278 283 274 280 278 289 290 298 304 301 295 297 298 293 288 280 273 270
275 285 279 265 251 317 87 282 48 43 28 25 30 34 38 40 37 30 22 15 5 356 344 329 312 296 282 258 249 248 255 261 256 263 267 281 298 305 321 313 304 301 301 297 294 289 282 278 273
307 292 280 297 303 314 271 264 83 62 54 50 52 52 51 49 47 44 37 32 26 20 13 6 356 345 335 313 287 267 254 253 254 245 270 278 292 307 319 303 298 298 298 299 297 289 282 277 273
302 287 315 289 279 279 279 151 121 66 62 56 54 51 49 46 43 41 37 34 30 28 24 20 15 11 5 357 339 304 282 272 273 261 249 264 273 285 290 295 295 296 299 301 298 289 287 280 274
316 314 281 278 288 289 282 260 43 43 51 52 48 44 39 35 32 27 24 20 17 17 17 16 16 16 12 9 359 348 323 294 275 269 270 273 275 274 277 282 288 294 297 298 296 293 289 285 280
283 251 286 282 290 295 293 320 64 64 53 41 37 29 24 18 16 14 13 8 5 4 3 2 1 1 2 2 358 354 346 329 306 282 274 269 267 266 264 270 280 287 292 296 296 294 297 295 292
290 328 312 306 303 289 285 341 86 79 56 25 11 6 3 359 357 355 356 354 354 354 353 351 348 347 347 346 342 343 341 339 330 316 298 281 268 260 256 259 268 277 283 290 294 299 305 305 304